Regional Weather Roundup
Issued by NWS

Home | Current Version | Previous Version | Text Only | Print | Product List | Glossary On
Versions: 1 2 3 4 5 6 7 8 9 10 11 12 13 14 15 16 17 18 19 20 21 22 23 24 25 26 27 28 29 30 31 32 33 34 35 36 37 38 39 40 41 42 43 44 45 46 47 48 49 50
076
ASUS43 KTOP 291159
RWRKS

WEATHER ROUNDUP FOR KANSAS
NATIONAL WEATHER SERVICE GOODLAND KS
700 AM CDT THU SEP 29 2016

NOTE:  "FAIR" INDICATES FEW OR NO CLOUDS BELOW 12,000 FEET WITH NO
SIGNIFICANT WEATHER AND/OR OBSTRUCTIONS TO VISIBILITY.

KSZ001>006-013>018-027>032-041>047-291300-
NORTHWEST KANSAS

CITY           SKY/WX    TMP DP  RH WIND       PRES   REMARKS
GOODLAND       CLEAR     42  37  82 S7        30.39F
6HR MIN TEMP:  41; 6HR MAX TEMP:  51;

HAYS           CLEAR     41  30  65 NW3       30.41R
HILL CITY      CLEAR     39  37  92 CALM      30.43R
6HR MIN TEMP:  39; 6HR MAX TEMP:  49;

RUSSELL        CLOUDY    43  42  97 N5        30.40R
6HR MIN TEMP:  42; 6HR MAX TEMP:  51;

$$

KSZ061>065-074>080-084>089-291300-
SOUTHWEST KANSAS

CITY           SKY/WX    TMP DP  RH WIND       PRES   REMARKS
DODGE CITY     CLOUDY    40  38  93 N5        30.41R
6HR MIN TEMP:  40; 6HR MAX TEMP:  53;

ELKHART          N/A     47  35  63 SE7         N/A
GARDEN CITY    CLOUDY    45  39  79 NE5       30.40R
6HR MIN TEMP:  43; 6HR MAX TEMP:  56;

GREAT BEND     CLOUDY    43  34  70 CALM      30.41R
LIBERAL        PTCLDY    46  32  57 CALM      30.40S
$$

KSZ066>073-081>083-090>101-291300-
SOUTHEAST KANSAS

CITY           SKY/WX    TMP DP  RH WIND       PRES   REMARKS
CHANUTE        CLEAR     49  46  90 N6        30.33R
6HR MIN TEMP:  49; 6HR MAX TEMP:  53;

COFFEYVILLE    CLEAR     48  46  93 N7        30.33R
6HR MIN TEMP:  48; 6HR MAX TEMP:  56;

HUTCHINSON     CLEAR     45  43  93 N5        30.39R
6HR MIN TEMP:  45; 6HR MAX TEMP:  55;

MEDICINE LODGE   N/A     46  44  93 W5        30.39R
NEWTON           N/A     44  44 100 N6        30.38R
PARSONS        CLEAR     45  44  97 CALM      30.34R
6HR MIN TEMP:  43; 6HR MAX TEMP:  53;

WICHITA INTL   PTCLDY    49  46  90 NW7       30.37R
6HR MIN TEMP:  48; 6HR MAX TEMP:  56;

WICHITA JABRA  CLEAR     47  45  93 N8        30.37R
6HR MIN TEMP:  46; 6HR MAX TEMP:  51;

WICHITA MCCONL CLEAR     49  46  87 N5        30.37R
WINFIELD       CLEAR     46  44  93 NW6       30.37R
6HR MIN TEMP:  46; 6HR MAX TEMP:  54;

$$

KSZ007>012-019>026-033>040-048>060-102>105-291300-
NORTHEAST KANSAS

CITY           SKY/WX    TMP DP  RH WIND       PRES   REMARKS
CONCORDIA      CLOUDY    42  42 100 NW3       30.40R
6HR MIN TEMP:  42; 6HR MAX TEMP:  50;

EMPORIA        CLEAR     47  46  97 W6        30.36R
6HR MIN TEMP:  46; 6HR MAX TEMP:  52;

LAWRENCE       CLEAR     47  46  97 W5        30.35R
6HR MIN TEMP:  47; 6HR MAX TEMP:  51;

MANHATTAN      CLEAR     44  43  96 CALM      30.39R
6HR MIN TEMP:  44; 6HR MAX TEMP:  54;

OLATHE IND     CLEAR     48  47  96 NW7       30.35R
6HR MIN TEMP:  47; 6HR MAX TEMP:  51;

OLATHE EXE     CLEAR     49  46  90 N6        30.33R
6HR MIN TEMP:  48; 6HR MAX TEMP:  53;

SALINA         CLEAR     46  43  89 NW8       30.40R
6HR MIN TEMP:  46; 6HR MAX TEMP:  55;

TOPEKA BILLARD CLEAR     50  46  86 CALM      30.36R
6HR MIN TEMP:  49; 6HR MAX TEMP:  52;

TOPEKA FORBES  CLEAR     47  45  93 NW6       30.36R
6HR MIN TEMP:  47; 6HR MAX TEMP:  52;

$$




USA.gov is the U.S. government's official web portal to all federal, state and local government web resources and services.